{"data":{"norad_id":53055,"intl_designator":"2022-077N","name":"STARLINK-4338","alt_names":[],"object_type":"PAYLOAD","status":"ACTIVE","operator":null,"country":"US","launch_date":"2022-07-11","launch_site_code":"AFWTR","launch_vehicle":null,"mission":null,"orbit_class":"UNKNOWN","rcs_meters":null,"size_class":null,"mass_kg":null,"dimensions":null,"purposes":["comms"],"wikipedia_slug":null,"has_3d_model":false,"image_url":null,"decayed_at":null,"tle_current":{"epoch":"2026-05-25T00:41:20.556096Z","epoch_age_seconds":73404,"freshness":"FRESH","line1":"1 53055U 22077N   26145.02871014 -.00001350  00000+0 -89506-4 0  9999","line2":"2 53055  97.4497 326.0424 0000967 106.1142 254.0192 15.05652942212465","mean_motion":15.05652942,"eccentricity":9.67e-5,"inclination_deg":97.4497,"raan_deg":326.0424,"arg_perigee_deg":106.1142,"mean_anomaly_deg":254.0192,"bstar":-8.9506e-5,"rev_number":21246,"period_min":95.639570038445,"perigee_km":548.83222705663,"apogee_km":550.17203246433,"semimajor_km":6927.6391297605,"source":"CELESTRAK","updated_at":"2026-05-25T13:38:17.288134Z"}}}